This is the latest recevied weather packets stored in our database for station/object DW9280. If no packets are shown the sender has not sent any weather packets the latest 10 day(s).
| Time | Temp. | Humidity | Pressure | Rain* | Wind** | Luminosity | Snow |
|---|---|---|---|---|---|---|---|
| 1788111663 | 20° C | 80% | 1010.5 hPa | 0 mm | - | 56 W/m² | - |
| 1788111362 | 20° C | 80% | 1010.4 hPa | 0 mm | - | 60 W/m² | - |
| 1788111063 | 20° C | 80% | 1010.5 hPa | 0 mm | - | 54 W/m² | - |
| 1788110756 | 20° C | 80% | 1010.4 hPa | 0 mm | - | 54 W/m² | - |
| 1788110455 | 20° C | 81% | 1010.4 hPa | 0 mm | - | 63 W/m² | - |
| 1788110144 | 20° C | 81% | 1010.6 hPa | 0 mm | - | 67 W/m² | - |
| 1788109842 | 20.56° C | 82% | 1010.5 hPa | 0 mm | - | 76 W/m² | - |
| 1788109537 | 20.56° C | 82% | 1010.6 hPa | 0 mm | - | 76 W/m² | - |
| 1788109333 | 20.56° C | 83% | 1010.5 hPa | 0 mm | - | 83 W/m² | - |
| 1788108932 | 20.56° C | 83% | 1010.6 hPa | 0 mm | - | 86 W/m² | - |
| 1788108633 | 20.56° C | 84% | 1010.6 hPa | 0 mm | - | 86 W/m² | - |
| 1788108332 | 20.56° C | 83% | 1010.7 hPa | 0 mm | - | 95 W/m² | - |
| 1788108031 | 20.56° C | 83% | 1010.7 hPa | 0 mm | - | 102 W/m² | - |
| 1788107729 | 20.56° C | 83% | 1010.6 hPa | 0 mm | - | 109 W/m² | - |
| 1788107428 | 20.56° C | 83% | 1010.7 hPa | 0 mm | - | 114 W/m² | - |
| 1788107125 | 20.56° C | 82% | 1010.6 hPa | 0 mm | - | 120 W/m² | - |
| 1788106826 | 20.56° C | 82% | 1010.7 hPa | 0 mm | - | 123 W/m² | - |
| 1788106519 | 20.56° C | 82% | 1010.7 hPa | 0 mm | - | 134 W/m² | - |
| 1788106217 | 20.56° C | 82% | 1010.7 hPa | 0 mm | - | 142 W/m² | - |
| 1788105915 | 20.56° C | 82% | 1010.8 hPa | 0 mm | - | 151 W/m² | - |
| 1788105612 | 20.56° C | 82% | 1010.7 hPa | 0 mm | - | 132 W/m² | - |
| 1788105311 | 20.56° C | 82% | 1010.7 hPa | 0 mm | - | 118 W/m² | - |
| 1788105008 | 21.11° C | 82% | 1010.7 hPa | 0 mm | - | 118 W/m² | - |
| 1788104704 | 21.11° C | 82% | 1010.7 hPa | 0 mm | - | 141 W/m² | - |
| 1788104405 | 21.11° C | 82% | 1010.7 hPa | 0 mm | - | 174 W/m² | - |
* Rain latest hour (hover to see other rain measurements)
** Current wind speed in m/s (hover to see current wind gust speed)